www.pogodaiklimat.ru

Погода и климат >> Архив погоды >> Россия >> Хабаровский край >> Хабаровск


АРХИВ ПОГОДЫ в Хабаровске

Время (UTC), дата Ветер
(напр.,м/с)
 
Видим.   Явления Облачность Т
(С)
Тd
(С)
f
(%)
Тe
(С)
Тes
(С)
Комфортность P
(гПа)
Po
(гПа)
Тmin
(С)
Tmax
(С)
R
(мм)
R24
(мм)
S
(см)
21 8.07 ЮЗ 2 10 км 9/0
[Ac trans Ci fib]
+17.8 +16.5 92 +18 +19 по сезону 1015.9 1007.7 +16.7
00 9.07 З 5 10 км 10/4 1080 м
[Cb cap Ac As]
+18.7 +15.5 82 +19 +20 прохладно 1017.8 1009.6
03 9.07 З 2 10 км слабый ливневой дождь 10/4 840 м
[Cb cap Ac As]
+18.1 +15.2 83 +19 +22 холодно 1017.9 1009.6
06 9.07 ЮВ 2 9000 м слабый ливневой дождь 10/6 240 м
[Cb cap Ac As]
+18.2 +17.0 93 +19 +20 очень
холодно
1017.5 1009.2
09 9.07 Ю 2 10 км {ливн. осадки} 10/3 1000 м
[Cb cap Ac As]
+17.5 +13.0 75 +18 +18 холодно 1017.2 1008.9 +19.3 2
12 9.07 Ю 1 10 км {ливн. осадки} 10/4 930 м
[Cb cap Ac As]
+16.2 +14.7 91 +17 +17 прохладно 1017.6 1009.3
15 9.07 штиль 0 10 км 10/4 1140 м
[Cb cap Ac As]
+16.1 +14.2 88 +16 +16 прохладно 1017.5 1009.2
18 9.07 штиль 0 8000 м дымка 6/4 800 м
[Cb cap Ci fib]
+14.6 +14.3 98 +14 +14 прохладно 1017.8 1009.5
21 9.07 штиль 0 10 км {туман} 8/3 1000 м
[Cu med, cong Ci fib]
+16.5 +15.6 94 +16 +18 прохладно 1018.3 1010.0 +13.9
00 10.07 ЮВ 2 10 км {туман} 9/3 300 м
[Cu hum Ac trans Ci fib]
+19.7 +15.4 76 +22 +27 комфорт 1017.2 1009.0
03 10.07 СЗ 3 10 км 9/9 660 м
[Sc]
+21.7 +16.0 70 +25 +27 комфорт 1017.2 1009.2
06 10.07 З 3 10 км 9/5 750 м
[Cu hum Ci fib]
+23.6 +17.4 68 +27 +31 жарко 1015.4 1007.3
09 10.07 ЮЗ 1 10 км 8/3 800 м
[Cu hum Ac trans Ci fib]
+24.8 +17.0 62 +29 +29 душно 1014.0 1006.2 +24.9
12 10.07 ЮВ 1 10 км зарница 9/4 1000 м
[Cb cap Ac trans Ci fib]
+20.1 +18.9 93 +25 +25 комфорт 1013.4 1005.3
15 10.07 Ю 3 10 км в посл. час гроза 10/9 720 м
[Cb cap As op]
+17.9 +17.7 99 +18 +18 по сезону 1013.1 1005.1
18 10.07 ЮЗ 2 10 км 1/1 600 м
[Sc]
+17.0 +16.7 98 +17 +17 по сезону 1013.0 1004.8
21 10.07 штиль 0 10 км {туман} 9/9 120 м
[St]
+17.9 +17.9 100 +18 +18 прохладно 1013.2 1005.0 +15.7 9
00 11.07 ЮЗ 2 10 км {туман} 8/6 360 м
[St Ci fib]
+21.7 +19.1 85 +27 +31 душно 1013.3 1005.1
03 11.07 ЮЗ 4 10 км 4/3 600 м
[Sc Ac trans]
+25.3 +17.5 62 +29 +37 душно 1012.5 1004.5
06 11.07 З 5 10 км 5/3 1000 м
[Cu med, cong Ac trans Ci fib]
+27.5 +16.9 52 +31 +35 душно 1010.4 1002.4
09 11.07 ЮЗ 4 10 км 6/3 1000 м
[Cb cap Ac trans]
+25.8 +19.5 68 +31 +32 очень
душно
1009.5 1001.5 +27.9
12 11.07 ЮЗ 4 10 км 6/3 600 м
[Cb cap Ac trans]
+23.1 +19.4 80 +30 +30 очень
душно
1009.0 1001.0
15 11.07 З 5 10 км 4/0
[Ac trans]
+23.3 +20.1 82 +30 +30 очень
душно
1008.4 1000.3
18 11.07 З 2 10 км 3/0
[Ac trans]
+21.5 +20.6 95 +27 +27 душно 1007.3 999.3
21 11.07 З 3 8000 м дымка {туман} 6/3 1000 м
[Sc Ac trans Ci fib]
+22.0 +21.2 95 +28 +29 душно 1007.2 999.2 +19.9
00 12.07 СВ 3 10 км {туман} 9/6 480 м
[Sc Ci fib]
+23.8 +22.0 90 +31 +34 очень
душно
1006.2 998.4
03 12.07 ЮЗ 3 10 км 9/5 1080 м
[Cu med, cong Ac trans Ci fib]
+27.2 +20.1 65 +33 +38 очень
душно
1005.2 997.3
06 12.07 ЮВ 2 10 км 9/5 1000 м
[Cb cap Ac trans Ci fib]
+26.4 +21.3 74 +34 +37 очень
душно
1003.8 995.9
09 12.07 В 2 10 км 9/3 600 м
[Cb cap Ac trans Ci fib]
+26.5 +21.5 74 +34 +34 очень
душно
1002.8 994.9 +27.9
12 12.07 З 3 10 км {ливн. осадки} 9/4 1000 м
[Cb cap Ac trans]
+22.4 +20.7 90 +29 +29 очень
душно
1003.5 995.5
15 12.07 З 1 10 км слабый ливневой дождь 10/5 1000 м
[Cb cap Ac As]
+20.6 +19.3 92 +26 +26 душно 1003.0 994.9
18 12.07 Ю 1 7000 м слабый ливневой дождь 10/6 870 м
[Cb cap Ac As]
+19.7 +19.4 98 +24 +24 комфорт 1002.8 994.7
21 12.07 В 2 10 км в посл. час ливневой дождь 10/6 330 м
[Cb cap Ac As]
+19.4 +19.1 98 +22 +23 комфорт 1002.5 994.4 +19.3 13
00 13.07 Ю 2 2300 м слабый ливневой дождь 10/10 270 м
[Cb cap Ac As]
+20.0 +19.8 99 +24 +24 комфорт 1002.6 994.7
03 13.07 В 2 10 км в посл. час ливневой дождь 10/10 180 м
[Cb cap]
+20.7 +20.2 97 +26 +26 душно 1003.0 994.9
06 13.07 З 1 10 км {ливн. осадки} 9/6 1000 м
[Cb cap Ac trans]
+23.1 +19.9 82 +30 +33 очень
душно
1003.2 995.2
09 13.07 СВ 1 10 км 8/4 750 м
[Cb cap Ci fib]
+24.8 +20.1 75 +30 +31 душно 1003.2 995.3 +25.0 3
12 13.07 ЮЗ 2 10 км зарница 9/4 800 м
[Cb cap Ac trans]
+21.3 +20.7 96 +27 +27 душно 1005.2 997.2
15 13.07 В 2 10 км {ливн. осадки} 10/4 1000 м
[Cb cap Ac As]
+20.7 +20.1 96 +26 +26 душно 1002.0 994.0
18 13.07 С 1 10 км в посл. час ливневой дождь 9/3 1000 м
[Cb cap Ac trans]
+19.5 +19.3 99 +23 +23 комфорт 1003.4 995.3
21 13.07 Ю 1 10 км 4/1 1000 м
[Cb cap Ac trans]
+19.7 +19.5 99 +24 +25 комфорт 1004.4 996.3 +18.1 0.3
00 14.07 ЮВ 1 10 км 6/0
[Ac trans Ci fib]
+25.2 +18.9 68 +30 +40 душно 1003.9 996.2
03 14.07 Ю 2 10 км 9/3 1000 м
[Sc Ac trans Ci fib]
+26.9 +20.3 67 +33 +40 очень
душно
1004.1 996.3
06 14.07 З 3 10 км 9/4 900 м
[Cb cap Ci fib]
+27.0 +21.2 71 +34 +39 очень
душно
1003.2 995.4
09 14.07 СВ 2 10 км 9/0
[Ac trans Ci fib]
+25.6 +22.4 83 +34 +35 очень
душно
1003.1 995.2 +28.0
12 14.07 В 2 10 км 9/0
[Ac trans]
+22.4 +21.9 97 +30 +30 очень
душно
1003.0 995.1
15 14.07 ЮВ 1 10 км 9/0
[Ac trans]
+21.9 +21.7 99 +29 +29 очень
душно
1002.6 994.6
18 14.07 Ю 2 10 км слабый ливневой дождь 9/3 1000 м
[Cb cap Ac trans]
+21.5 +21.4 99 +27 +27 душно 1001.7 993.9
21 14.07 ЮВ 1 7000 м дымка {ливн. осадки} 9/3 600 м
[Cb cap Ac trans Ci fib]
+21.5 +21.2 98 +27 +28 душно 1001.9 994.0 +20.6 0.0
00 15.07 Ю 1 10 км {ливн. осадки} 9/3 1000 м
[Cb cap Ac trans]
+24.1 +20.2 79 +30 +34 очень
душно
1002.2 994.3
03 15.07 ЮВ 2 10 км гроза, ливневой дождь 9/4 600 м
[Cb cap Ac trans]
+26.6 +20.1 68 +33 +38 очень
душно
1002.1 994.2
06 15.07 СВ 2 10 км гроза без осадков {ливн. осадки} 9/4 1000 м
[Cb cap Ac trans]
+25.1 +20.9 78 +32 +35 очень
душно
1002.1 994.2
09 15.07 В 1
{14}
10 км слабый ливневой дождь, в посл. час гроза 9/5 1080 м
[Cb cap Ac trans Ci fib]
+19.8 +19.0 95 +24 +24 комфорт 1003.0 994.9 +27.7 6
12 15.07 З 2
{14}
10 км {гроза, ливн. осадки} 9/5 330 м
[St Ac trans]
+19.7 +19.2 97 +23 +23 комфорт 1005.1 997.0
15 15.07 В 1 100 м туман ?/? +18.5 +18.5 100 +21 +21 комфорт 1005.7 997.6
18 15.07 В 2 200 м туман ?/? +18.9 +18.9 100 +21 +21 комфорт 1006.2 998.1

 

Местоположение метеостанции Хабаровск (Хабаровский край, Россия): широта 48.52 долгота 135.10 высота над уровнем моря 76 м.

В архиве по умолчанию представлена погода в Хабаровске за последнюю неделю. Архивные данные за месяц целиком и за предыдущие месяцы, начиная с января 2011 года, Вы можете получить, выбрав интересующий диапазон дат из раскрывающегося списка и нажав кнопку "Ввод!".


*Определитесь, кто Вы:
робот инопланетянин человек

Внимание! Время в таблицах - всемирное. Для получения местного времени необходимо прибавить поправку, которая в Хабаровске равна 10 ч.

Смотрите также архив погоды в соседних городах и на ближайших метеорологических станциях:

Погода в Хабаровске АМС (Хабаровский край, Россия) (6 км)
Погода в Хабаровск Мосту (Хабаровский край, Россия) (6 км)
Погода в Хабаровске Аэр. Большой (Хабаровский край, Россия) (8 км)
Погода в Хабаровске 21 км (Хабаровский край, Россия) (19 км)
Погода в Князе-Волконском (Хабаровский край, Россия) (28 км)
Погода в Бычихе (Хабаровский край, Россия) (32 км)
Погода в Елабуге (Хабаровский край, Россия) (61 км)
Погода в Оборе (Хабаровский край, Россия) (62 км)
Погода в Георгиевке (Хабаровский край, Россия) (64 км)
Погода в Хабаровске Центр (Еврейская автономная область, Россия) (76 км)

Пояснения к столбцам:

Ветер - указаны скорость ветра в м/с - средняя за 10 мин, порывы в срок и между сроками (в фигурных скобках) и направление, откуда дует ветер: С - северный, СВ - северо-восточный, В - восточный, ЮВ - юго-восточный, Ю - южный, ЮЗ - юго-западный, З - западный, СЗ - северо-западный.
Видимость - горизонтальная дальность видимости в метрах или километрах. При видимости от 1 до 10 км при отсутствии осадков обычно наблюдается дымка, при ухудшении видимости до 1 км и менее - туман. В сухую погоду видимость может ухудшаться дымом, пылью или мглою.
Явления - указаны атмосферные явления, наблюдавшиеся в срок или в последний час перед сроком; фигурными скобками обозначены явления, наблюдавшиеся между сроками (за 1-3 часа до срока); квадратными скобками обозначены град или гололедные отложения с указанием их диаметра в мм.
Облачность - указаны через наклонную черту общая и нижняя облачность в баллах и высота нижней границы облаков в метрах; квадратными скобками обозначены формы облаков: Ci - перистые, Cs - перисто-слоистые, Cc - перисто-кучевые, Ac - высококучевые, As - высокослоистые, Sc - слоисто-кучевые, Ns - слоисто-дождевые, Cu - кучевые, Cb - кучево-дождевые. Подробнее классификацию облаков см. в Атласе облаков (PDF).
T - Температура воздуха - температура, измеренная на высоте 2 м над землей.
Td - Температура точки росы - температура, при понижении до которой содержащийся в воздухе водяной пар достигнет насыщения.
f - Относительная влажность воздуха - влажноcть воздуха, измеренная на высоте 2 м над землей.
Te - Эффективная температура - температура, которую ощущает одетый по сезону человек в тени. Характеристика душности погоды. При расчете учитывается влияние влажности воздуха и скорости ветра на теплоощущения человека.
Tes - Эффективная температура на солнце - температура, которую ощущает человек, с поправкой на солнечный нагрев. Характеристика знойности погоды. Зависит от высоты солнца над горизонтом, облачности и скорости ветра. Ночью, в пасмурную погоду, а также при ветре 12 м/с и более поправка равна нулю.
P - Атмосферное давление - приведенное к уровню моря атмосферное давление.
Po - Атмосферное давление - измеренное на уровне метеостанции атмосферное давление.
Tmin - Минимальная температура - минимум температуры воздуха на высоте 2 м над землей.
Tmax - Максимальная температура - максимум температуры воздуха на высоте 2 м над землей.
R - Количество осадков - Количество выпавших осадков за период времени, мм. При наведении курсора мыши на число - период времени, за который выпало указанное количество осадков.
R24 - Количество осадков - Количество выпавших осадков за 24 часа, мм.
S - Снежный покров - Высота снежного покрова, см. При наведении курсора мыши на число - состояние снежного покрова и степень покрытия местности в баллах.